| time (UTC) | temp F | wind direction | speed MPH | gust MPH | rain 1hr in | rain 24hr in | rain mn in | humidity % | barometer mb |
| 20260831223019 | 71 | 355 | 0.0 | 0.0 | 0.00 | 0.05 | 0.05 | 94 | 1010.9 |
| 20260831221517 | 72 | 39 | 0.0 | 0.0 | 0.00 | 0.05 | 0.05 | 93 | 1010.8 |
| 20260831220016 | 72 | 349 | 0.0 | 0.0 | 0.00 | 0.05 | 0.05 | 94 | 1010.6 |
| 20260831214515 | 72 | 349 | 0.0 | 0.0 | 0.00 | 0.05 | 0.05 | 93 | 1010.4 |
| 20260831213015 | 72 | 349 | 0.0 | 1.0 | 0.00 | 0.05 | 0.05 | 94 | 1010.4 |
| 20260831211515 | 72 | 355 | 0.0 | 1.0 | 0.00 | 0.05 | 0.05 | 93 | 1010.1 |
| 20260831210014 | 72 | 360 | 0.0 | 3.0 | 0.00 | 0.05 | 0.05 | 93 | 1010.1 |
| 20260831204514 | 72 | 355 | 0.0 | 1.0 | 0.00 | 0.06 | 0.05 | 93 | 1009.9 |
| 20260831203122 | 73 | 5 | 0.0 | 1.0 | 0.00 | 0.06 | 0.05 | 93 | 1009.7 |
| 20260831201512 | 73 | 22 | 0.0 | 6.0 | 0.00 | 0.06 | 0.05 | 93 | 1009.8 |
| 20260831200020 | 73 | 332 | 1.0 | 3.0 | 0.00 | 0.06 | 0.05 | 92 | 1009.9 |
| 20260831194510 | 73 | 5 | 0.0 | 3.0 | 0.00 | 0.06 | 0.05 | 92 | 1009.9 |
| 20260831193012 | 74 | 9 | 0.0 | 2.0 | 0.00 | 0.06 | 0.05 | 91 | 1010.0 |
| 20260831191509 | 74 | 5 | 0.0 | 2.0 | 0.00 | 0.06 | 0.05 | 93 | 1010.2 |
| 20260831190006 | 73 | 5 | 0.0 | 1.0 | 0.00 | 0.06 | 0.05 | 94 | 1010.1 |
| 20260831184506 | 73 | 355 | 0.0 | 0.0 | 0.00 | 0.06 | 0.05 | 93 | 1010.4 |
| 20260831183005 | 73 | 355 | 0.0 | 2.0 | 0.00 | 0.06 | 0.05 | 92 | 1010.4 |
| 20260831181505 | 74 | 129 | 0.0 | 0.0 | 0.00 | 0.06 | 0.05 | 91 | 1010.4 |
| 20260831180006 | 75 | 129 | 0.0 | 0.0 | 0.00 | 0.06 | 0.05 | 92 | 1010.5 |
| 20260831174515 | 75 | 115 | 0.0 | 4.0 | 0.00 | 0.06 | 0.05 | 91 | 1010.6 |
| 20260831173002 | 75 | 183 | 0.0 | 4.0 | 0.00 | 0.06 | 0.05 | 94 | 1010.3 |
| 20260831171556 | 73 | 5 | 0.0 | 0.0 | 0.00 | 0.06 | 0.05 | 97 | 1010.5 |
| 20260831170056 | 72 | 5 | 0.0 | 0.0 | 0.00 | 0.06 | 0.05 | 99 | 1010.5 |
| 20260831164558 | 72 | 5 | 0.0 | 0.0 | 0.00 | 0.06 | 0.05 | 100 | 1010.7 |
| 20260831163044 | 72 | 5 | 0.0 | 0.0 | 0.00 | 0.06 | 0.05 | 100 | 1011.0 |
| 20260831161540 | 71 | 5 | 0.0 | 0.0 | 0.00 | 0.06 | 0.05 | 100 | 1011.0 |
| 20260831160038 | 71 | 5 | 0.0 | 0.0 | 0.00 | 0.06 | 0.05 | 100 | 1011.2 |
| 20260831154535 | 70 | 5 | 0.0 | 0.0 | 0.00 | 0.06 | 0.05 | 100 | 1010.9 |
| 20260831153033 | 70 | 5 | 0.0 | 0.0 | 0.00 | 0.06 | 0.05 | 100 | 1010.8 |
| 20260831151530 | 69 | 5 | 0.0 | 0.0 | 0.00 | 0.06 | 0.05 | 100 | 1010.7 |
| 20260831150028 | 68 | 5 | 0.0 | 0.0 | 0.00 | 0.06 | 0.05 | 100 | 1010.8 |
| 20260831144525 | 68 | 355 | 0.0 | 0.0 | 0.00 | 0.06 | 0.05 | 100 | 1010.8 |
| 20260831143023 | 67 | 355 | 0.0 | 0.0 | 0.00 | 0.06 | 0.05 | 100 | 1011.0 |
| 20260831141522 | 66 | 355 | 0.0 | 0.0 | 0.00 | 0.06 | 0.05 | 100 | 1011.0 |
| 20260831140023 | 66 | 355 | 0.0 | 0.0 | 0.00 | 0.06 | 0.05 | 100 | 1011.1 |
| 20260831134521 | 66 | 355 | 0.0 | 0.0 | 0.00 | 0.06 | 0.05 | 100 | 1011.2 |
| 20260831133020 | 66 | 355 | 0.0 | 2.0 | 0.00 | 0.06 | 0.05 | 100 | 1011.1 |
| 20260831131519 | 66 | 355 | 0.0 | 0.0 | 0.00 | 0.06 | 0.05 | 100 | 1011.1 |
| 20260831130020 | 65 | 355 | 0.0 | 0.0 | 0.00 | 0.06 | 0.05 | 100 | 1011.3 |
| 20260831124517 | 65 | 355 | 0.0 | 0.0 | 0.00 | 0.06 | 0.05 | 100 | 1011.4 |
| 20260831123016 | 65 | 355 | 0.0 | 2.0 | 0.00 | 0.06 | 0.05 | 100 | 1011.3 |
| 20260831121515 | 65 | 16 | 0.0 | 2.0 | 0.00 | 0.06 | 0.05 | 100 | 1011.2 |
| 20260831120030 | 65 | 11 | 0.0 | 0.0 | 0.00 | 0.06 | 0.05 | 100 | 1011.0 |
| 20260831114526 | 64 | 11 | 0.0 | 0.0 | 0.00 | 0.06 | 0.05 | 100 | 1010.9 |
| 20260831113012 | 64 | 11 | 0.0 | 0.0 | 0.00 | 0.06 | 0.05 | 100 | 1010.7 |
| 20260831111511 | 64 | 11 | 0.0 | 0.0 | 0.00 | 0.06 | 0.05 | 100 | 1010.9 |
| 20260831110009 | 64 | 11 | 0.0 | 0.0 | 0.00 | 0.06 | 0.05 | 100 | 1010.7 |
| 20260831104508 | 64 | 11 | 0.0 | 0.0 | 0.01 | 0.06 | 0.05 | 100 | 1010.7 |
| 20260831103005 | 64 | 11 | 0.0 | 0.0 | 0.01 | 0.06 | 0.05 | 100 | 1010.7 |
| 20260831101601 | 64 | 11 | 0.0 | 0.0 | 0.01 | 0.06 | 0.05 | 100 | 1010.9 |
| 20260831101502 | 64 | 11 | 0.0 | 0.0 | 0.01 | 0.06 | 0.05 | 100 | 1010.9 |
| 20260831100104 | 64 | 11 | 0.0 | 0.0 | 0.01 | 0.06 | 0.05 | 100 | 1011.1 |
| 20260831094556 | 64 | 11 | 0.0 | 0.0 | 0.00 | 0.05 | 0.04 | 100 | 1011.2 |
| 20260831093055 | 64 | 11 | 0.0 | 0.0 | 0.02 | 0.05 | 0.04 | 100 | 1011.5 |
| 20260831091552 | 64 | 11 | 0.0 | 0.0 | 0.02 | 0.05 | 0.04 | 100 | 1011.9 |
| 20260831090050 | 64 | 11 | 0.0 | 0.0 | 0.03 | 0.05 | 0.04 | 100 | 1012.1 |
| 20260831084550 | 64 | 11 | 0.0 | 0.0 | 0.04 | 0.05 | 0.04 | 100 | 1012.4 |
| 20260831083045 | 64 | 11 | 0.0 | 0.0 | 0.02 | 0.03 | 0.02 | 100 | 1012.5 |
| 20260831081546 | 64 | 11 | 0.0 | 0.0 | 0.02 | 0.03 | 0.02 | 100 | 1012.4 |
| 20260831080044 | 64 | 11 | 0.0 | 0.0 | 0.01 | 0.02 | 0.01 | 100 | 1012.4 |
| 20260831074543 | 64 | 11 | 0.0 | 0.0 | 0.00 | 0.01 | 0.00 | 100 | 1012.5 |
| 20260831073042 | 64 | 11 | 0.0 | 0.0 | 0.00 | 0.01 | 0.00 | 100 | 1012.7 |
| 20260831071539 | 64 | 11 | 0.0 | 0.0 | 0.00 | 0.01 | 0.00 | 100 | 1012.9 |
| 20260831070041 | 64 | 11 | 0.0 | 0.0 | 0.00 | 0.01 | 0.00 | 100 | 1013.1 |
| 20260831064538 | 64 | 10 | 0.0 | 0.0 | 0.00 | 0.01 | 0.00 | 100 | 1013.2 |
| 20260831063037 | 64 | 11 | 0.0 | 0.0 | 0.00 | 0.01 | 0.00 | 100 | 1013.1 |
| 20260831061535 | 64 | 11 | 0.0 | 0.0 | 0.00 | 0.01 | 0.00 | 100 | 1013.7 |
| 20260831060033 | 64 | 11 | 0.0 | 0.0 | 0.00 | 0.01 | 0.00 | 100 | 1013.6 |
| 20260831054532 | 64 | 11 | 0.0 | 0.0 | 0.00 | 0.01 | 0.00 | 100 | 1014.0 |
| 20260831053032 | 64 | 11 | 0.0 | 0.0 | 0.00 | 0.01 | 0.00 | 100 | 1014.4 |
| 20260831051531 | 64 | 10 | 0.0 | 0.0 | 0.00 | 0.01 | 0.00 | 100 | 1014.5 |
| 20260831050030 | 64 | 11 | 0.0 | 0.0 | 0.00 | 0.01 | 0.00 | 100 | 1014.5 |
| 20260831044529 | 64 | 337 | 0.0 | 0.0 | 0.00 | 0.01 | 0.00 | 100 | 1014.3 |
| 20260831043027 | 64 | 355 | 0.0 | 2.0 | 0.00 | 0.01 | 0.00 | 100 | 1014.2 |
| 20260831041525 | 64 | 355 | 0.0 | 0.0 | 0.00 | 0.01 | 0.00 | 100 | 1013.9 |
| 20260831040023 | 63 | 355 | 0.0 | 1.0 | 0.00 | 0.01 | 0.00 | 100 | 1013.9 |
| 20260831034523 | 63 | 355 | 0.0 | 0.0 | 0.00 | 0.01 | 0.01 | 99 | 1013.7 |
| 20260831033032 | 64 | 355 | 0.0 | 0.0 | 0.00 | 0.01 | 0.01 | 99 | 1013.9 |
| 20260831031522 | 64 | 355 | 0.0 | 0.0 | 0.00 | 0.01 | 0.01 | 99 | 1014.0 |
| 20260831030025 | 64 | 355 | 0.0 | 0.0 | 0.00 | 0.01 | 0.01 | 99 | 1014.1 |
| 20260831024523 | 64 | 355 | 0.0 | 0.0 | 0.00 | 0.01 | 0.01 | 99 | 1014.2 |
| 20260831023024 | 64 | 355 | 0.0 | 2.0 | 0.00 | 0.01 | 0.01 | 99 | 1014.2 |
| 20260831021520 | 65 | 355 | 0.0 | 1.0 | 0.00 | 0.01 | 0.01 | 99 | 1014.1 |
| 20260831020019 | 65 | 346 | 1.0 | 3.0 | 0.00 | 0.01 | 0.01 | 99 | 1014.1 |
| 20260831014519 | 65 | 5 | 0.0 | 0.0 | 0.00 | 0.01 | 0.01 | 99 | 1014.1 |
| 20260831013019 | 65 | 5 | 0.0 | 0.0 | 0.00 | 0.01 | 0.01 | 99 | 1014.0 |
| 20260831011518 | 65 | 5 | 0.0 | 0.0 | 0.00 | 0.01 | 0.01 | 99 | 1014.0 |
| 20260831010018 | 65 | 5 | 0.0 | 1.0 | 0.00 | 0.01 | 0.01 | 99 | 1013.9 |
| 20260831004517 | 65 | 5 | 0.0 | 0.0 | 0.00 | 0.01 | 0.01 | 99 | 1014.0 |
| 20260831003017 | 65 | 5 | 0.0 | 1.0 | 0.00 | 0.01 | 0.01 | 99 | 1014.0 |
| 20260831001517 | 66 | 5 | 0.0 | 0.0 | 0.00 | 0.01 | 0.01 | 99 | 1014.0 |
| 20260831000016 | 65 | 5 | 0.0 | 2.0 | 0.00 | 0.01 | 0.01 | 99 | 1014.1 |
| 20260830234516 | 65 | 5 | 1.0 | 2.0 | 0.00 | 0.01 | 0.01 | 99 | 1013.8 |
| 20260830233015 | 65 | 360 | 2.0 | 5.0 | 0.00 | 0.01 | 0.01 | 99 | 1014.1 |
| 20260830231515 | 65 | 360 | 2.0 | 6.0 | 0.00 | 0.01 | 0.01 | 99 | 1014.1 |
| 20260830230016 | 65 | 344 | 2.0 | 5.0 | 0.00 | 0.01 | 0.01 | 99 | 1014.0 |
| 20260830224515 | 65 | 349 | 2.0 | 6.0 | 0.00 | 0.01 | 0.01 | 99 | 1013.9 |